Location: Newberry Star Park
(29.6730°N, 82.6011°W)
Time: 00:39:23
(UTC-04:00)

Envisat - Visible Passes

Search period start: 27 April 2018 00:00
Search period end: 07 May 2018 00:00
Orbit: 764 x 766 km, 98.2° (Epoch: 26 April)

Date Brightness Start Highest point End Pass type
(mag) Time Alt. Az. Time Alt. Az. Time Alt. Az.
27 Apr 3.7 21:20:21 10° S 21:25:18 55° W 21:30:17 10° NNW visible
28 Apr 3.1 20:43:40 10° SSE 20:48:38 59° ENE 20:53:37 10° N visible
28 Apr 5.8 22:26:34 10° WSW 22:27:54 11° W 22:29:14 10° WNW visible
29 Apr 4.8 21:46:37 10° SSW 21:50:57 28° W 21:55:18 10° NW visible
30 Apr 3.2 21:09:06 10° S 21:14:09 73° WSW 21:19:14 10° NNW visible
01 May 3.4 20:32:43 10° SE 20:37:31 45° ENE 20:42:20 10° N visible
01 May 5.6 22:13:51 10° SW 22:16:40 15° W 22:19:30 10° WNW visible
02 May 4.4 21:35:06 10° SSW 21:39:45 37° W 21:44:27 10° NNW visible
03 May 3.0 20:57:57 10° SSE 21:03:01 86° ENE 21:08:06 10° N visible
04 May 5.3 22:01:50 10° SW 22:05:27 20° W 22:09:05 10° NW visible
05 May 3.9 21:23:42 10° S 21:28:35 49° W 21:33:30 10° NNW visible
06 May 3.0 20:46:52 10° SSE 20:51:53 66° ENE 20:56:55 10° N visible
